THORAD AGENA D DEB, 42508

Orbit data source: Space-Track

THORAD AGENA D DEB, 42508 is space debris in SSO originally from a launch on Wed, 08 Apr 1970 UTC launched from the Air Force Western Test Range (AFWTR). Debris objects in space refer to the collection of defunct objects orbiting the Earth. Examples of debris include non-operational satellites, rocket bodies, and fragments generated from explosions, collisions, or faulty payload assembly.

Loading next visibility...
Identifier
42508, 1970-025RN
Orbit
SSO
Last TLE update
4 days ago
Origin
Manufacturer
Unknown
Mission
Spacecraft
Bus & Motor
Unknown
Mass
Unknown
Launch date (UTC)
1970-04-08 (55 years ago)
Launch vehicle
Unknown
Launch site
Air Force Western Test Range (AFWTR)
Object type
Payload
Rocket body
Debris
Shape & HBR
Unknown
Radar Cross Section
Small (<0.1 m²)

Expand to show TLE details & history

TLE from 4 days ago
0 THORAD AGENA D DEB
1 42508U 70025RN  25182.83345109  .00000299  00000-0  25551-3 0  9995
2 42508  99.8525  28.9020 0120589 188.9174 170.9841 13.92393782127471
Epoch: 2025-07-01T20:00Z
TLE epoch observation values (Epoch: 2025-07-01T20:00:10.174Z)
Latitude
-0.00006°
Longitude
168.73639°
Altitude
1,010.058 km
Speed
7.303 km/s
True Right ascension
01h 55m 36s
True Declination
0° 00' 00"
Sunlit
Object was in daylight at epoch
Visualization orbit readout
Latitude
-18.25274°
Longitude
176.12201°
Altitude
1,011.312 km
Speed
7.303 km/s
Apparent Right ascension
23h 30m 23s
Apparent Declination
-55° 30' 08"
Sunlit
Object is in daylight
Visualization observer readout
Local Sidereal Time
04:57:41
Azimuth
219.349° SW
Elevation
-27.845°
Doppler factor
1
Orbital elements
Apogee altitude
1,005.484 km
Perigee altitude
829.529 km
Semi-major axis
7,295.643 km
Eccentricity
0.01206
Inclination
99.8525°
RAAN
28.902°
Arg. of periapsis
188.9174°
True anomaly
Unknown
Mean anomaly
170.9841°
Eccentric anomaly
Unknown
Mean motion
3.48295 °/min
Orbital period
103.36 mins
BSTAR
0.00025551
Loading maneuver chart data...
Loading SW <> Apogee altitude chart data...

THORAD AGENA D DEB Visibility forecast

Observer location: undefined°, undefined°

Span
Click to sort rows by Start time (UTC) header in descending order
Start Az.
Max El. time (UTC)
Max El. Az.
Max El.
End time (UTC)
End Az.
10 mins2025-07-06 02:20:23.658Z24.101° NE2025-07-06 02:25:23.658Z85.816° E38.893°2025-07-06 02:30:23.658Z177.588° S
6 mins2025-07-06 04:04:23.658Z336.23° NNW2025-07-06 04:07:23.658Z297.908° NW19.106°2025-07-06 04:10:23.658Z260.066° W
6 mins2025-07-06 12:17:23.658Z89.023° E2025-07-06 12:19:23.658Z65.072° ENE19.341°2025-07-06 12:23:23.658Z19.679° NNE
10 mins2025-07-06 13:56:23.658Z177.046° S2025-07-06 14:01:23.658Z269.961° W42.4°2025-07-06 14:06:23.658Z337.752° N
|